DECAYED

STARLINK-1481, 45742 (Decayed)

Orbit data source: Space-Track

STARLINK-1481, 45742 was a payload satellite owned by SpaceX/Seattle (US) in LEO that was launched on Sat, 13 Jun 2020 UTC via an FALCON 9 launch vehicle from the Air Force Eastern Test Range (AFETR). Payload-class satellites include a variety of spacecraft equipped with specific instruments for various scientific and technological missions. These include communications satellites like Starlink; space stations such as the ISS; scientific satellites like the Hubble; Earth observation satellites from companies like Planet Labs, Umbra, and HawkEye 360; GPS; miniature CubeSats for education and research; and military/defense satellites.

Not visible in the next 10 days
Identifier
45742, 2020-038N
Orbit
Decayed
Country
Flag of USUS
Related business
Manufacturer
SpaceX/Seattle
Mission
Decayed Commercial Communications
Bus & Motor
STARLINK, Unknown motor
Mass
260 kg wet, ~248 kg dry
Launch date (UTC)
2020-06-13 (6 years ago)
Launch vehicle
FALCON 9
Launch site
Air Force Eastern Test Range (AFETR)
Object type
Payload
Rocket body
Debris
Shape & HBR
Box + 1 Pan, 10.1 m
Radar Cross Section
13.562 m², Large (>1 m²)

Expand to show TLE details & history
Last TLE update: 1 year ago

TLE from 1 year ago
0 STARLINK-1481
1 45742U 20038N   25236.24808367  .10385196  12554-4  25131-3 0  9990
2 45742  53.0205 303.8028 0003728 291.3313  68.7338 16.46065833287818
Epoch: 2025-08-24T05:57Z
TLE epoch observation values (Epoch: 2025-08-24T05:57:14.429Z)
Latitude
0.00003°
Longitude
-118.27852°
Altitude
149.763 km
Speed
7.818 km/s
True Right ascension
20h 15m 12s
True Declination
0° 00' 00"
Sunlit
Object was in full shadow at epoch
Visualization orbit readout
Latitude
Unknown
Longitude
Unknown
Altitude
Unknown
Speed
Unknown
Apparent Right ascension
Unknown
Apparent Declination
Unknown
Sunlit
N/A
Visualization observer readout
Local Sidereal Time
17:10:11
Azimuth
Unknown
Elevation
Unknown
Doppler factor
Unknown
Orbital elements
Apogee altitude
152.442 km
Perigee altitude
147.575 km
Semi-major axis
6,528.146 km
Eccentricity
0.00037
Inclination
53.0205°
RAAN
303.8028°
Arg. of periapsis
291.3313°
True anomaly
68.77362°
Mean anomaly
68.7338°
Eccentric anomaly
68.75371°
Mean motion
4.11489 °/min
Orbital period
87.49 mins
BSTAR
0.00025131
Loading maneuver chart data...
Computing Atmospheric mass density...

Documentation

Showing up to 5 results
|